Location: Unspecified
(0.0000°N, 0.0000°E)
Time: 00:07:58
(UTC+00:00)

STARLINK-1053 - Pass Details

Date: 23 January 2020
Orbit: 546 x 548 km, 53.1° (Epoch: 15 January)

Event Time Altitude Azimuth Distance (km) Brightness Sun altitude
Exits shadow 05:04:35 26° 262° (W) 1,102 4.6 -15.8°
Maximum altitude 05:06:07 35° 304° (NW) 895 4.2 -15.4°
Drops below altitude 10° 05:09:52 10° 10° (N) 1,801 6.1 -14.5°
Sets 05:12:14 0° 20° (NNE) 2,690 7.1 -14.0°
